[[[{"header":{"parameterUnit":"kt","parameterCategory":2,"dx":1,"dy":1,"la1":30.253999710083008,"la2":30.299108505249023,"lo1":-89.0895004272461,"lo2":-89.04439544677734,"nx":28,"ny":28,"refTime":"2022-10-10T21:00:00:Z","depth":0,"parameterNumber":1,"parameterNumberName":"U-component_of_WINDS"},"data":[-7.9387,-7.9567,-7.9568,-7.9775,-7.981,-7.9952,-8.0002,-8.0068,-8.0121,-8.0291,-8.0389,-8.0408,-8.0461,-8.0579,-8.0686,-8.0692,-8.0736,-8.0801,-8.0796,-8.0505,-8.0465,-8.0426,-8.038,-8.0812,-8.0812,-8.1096,-8.1099,-8.1101,-7.9177,-7.9213,-7.9323,-7.9429,-7.9523,-7.9461,-7.954,-7.9622,-7.9751,-7.9817,-7.9913,-8.0063,-8.0182,-8.0212,-8.0326,-8.0412,-8.0388,-8.0443,-8.0434,-8.0443,-8.0133,-8.0085,-8.046,-8.046,-8.046,-8.046,-8.046,-8.046,-7.8794,-7.8903,-7.8965,-7.9084,-7.9137,-7.9208,-7.9312,-7.9331,-7.9438,-7.9555,-7.9534,-7.968,-7.9746,-7.9882,-7.9928,-8.0042,-7.998,-8.0039,-8.0053,-8.0067,-8.0083,-7.967,-8.0061,-8.006,-8.0059,-8.0059,-8.0058,0,-7.8512,-7.8504,-7.8607,-7.8712,-7.8798,-7.8879,-7.8953,-7.9018,-7.8998,-7.9088,-7.9218,-7.9292,-7.944,-7.9561,-7.9668,-7.9702,-7.9643,-7.9638,-7.9678,-7.9688,-7.9684,-7.9685,-7.9177,-7.9625,-7.9622,-7.9619,-7.9617,-7.9615,-7.8123,-7.825,-7.8314,-7.8387,-7.8426,-7.8545,-7.8615,-7.8589,-7.8665,-7.8752,-7.885,-7.8971,-7.9066,-7.9275,-7.9294,-7.9405,-7.9376,-7.9548,-7.9392,-7.9398,-7.9375,-7.9366,-7.9378,-7.9576,-7.9581,-7.9585,-7.9589,0,-7.7903,-7.7899,-7.8095,-7.8144,-7.8161,-7.8296,-7.8338,-7.8446,-7.8451,-7.8601,-7.8634,-7.8642,-7.877,-7.8761,-7.8906,-7.8897,-7.9121,-7.9092,-7.9098,-7.909,-7.9241,-7.9225,-7.9734,-7.9799,-7.9355,-7.936,-7.9363,0,-7.7567,-7.7735,-7.7717,-7.7831,-7.8018,-7.7983,-7.8169,-7.8191,-7.8244,-7.8361,-7.8293,-7.8404,-7.8375,-7.8486,-7.8474,-7.8655,-7.8683,-7.8686,-7.868,-7.869,-7.8689,-7.8726,-7.8703,-7.8664,-7.8662,-7.8659,-7.8657,0,-7.722,-7.7408,-7.7593,-7.7634,-7.7702,-7.7791,-7.7824,-7.7881,-7.795,-7.8039,-7.8083,-7.819,-7.8247,-7.8332,-7.8313,-7.8208,-7.8536,-7.8387,-7.8538,-7.8539,-7.8607,-7.8602,-7.9059,-7.8654,-7.8653,-7.8652,-7.8652,0,-7.6945,-7.7033,-7.7304,-7.7357,-7.7407,-7.753,-7.763,-7.7733,-7.7799,-7.7797,-7.7867,-7.7817,-7.7976,-7.7829,-7.8047,-7.7915,-7.7976,-7.7994,-7.8004,-7.8013,-7.7847,-7.8102,-7.8542,-7.8585,-7.8029,-7.8024,-7.8019,0,-7.6549,-7.6818,-7.6788,-7.7046,-7.7168,-7.7079,-7.7216,-7.7275,-7.7284,-7.739,-7.74,-7.7521,-7.7409,-7.7444,-7.7555,-7.7569,-7.7742,-7.7546,-7.7698,-7.7704,-7.7679,-7.8085,-7.815,-7.8447,-7.7953,-7.796,-7.7965,0,-7.6238,-7.6316,-7.6364,-7.6408,-7.6479,-7.6581,-7.6739,-7.6849,-7.692,-7.6995,-7.7125,-7.7296,-7.7217,-7.7277,-7.7247,-7.7362,-7.7624,-7.7262,-7.7263,-7.7325,-7.7919,-7.798,-7.803,-7.7579,-7.7587,-7.7594,-7.7912,0,-7.5819,-7.5952,-7.6082,-7.6181,-7.6258,-7.6418,-7.6402,-7.6486,-7.6448,-7.6451,-7.6643,-7.6688,-7.68,-7.6855,-7.6819,-7.7085,-7.7037,-7.6952,-7.6803,-7.7071,-7.7175,-7.7218,-7.665,-7.6645,-7.6641,-7.6638,0,0,-7.5439,-7.5628,-7.5587,-7.5735,-7.5797,-7.5699,-7.5871,-7.592,-7.6021,-7.6066,-7.5984,-7.623,-7.6269,-7.6503,-7.6585,-7.6632,-7.6677,-7.6583,-7.6945,-7.6979,-7.701,-7.7122,-7.7167,-7.6632,-7.663,-7.6629,-7.6628,0,-7.528,-7.5321,-7.5491,-7.554,-7.5609,-7.5603,-7.5644,-7.5695,-7.5704,-7.5891,-7.5806,-7.5919,-7.6116,-7.6168,-7.622,-7.6556,-7.6484,-7.6593,-7.6777,-7.6908,-7.6947,-7.6981,-7.7099,-7.7142,-7.6619,-7.6619,-7.662,0,-7.4969,-7.5006,-7.5085,-7.522,-7.5263,-7.5391,-7.5232,-7.5374,-7.5469,-7.5351,-7.5537,-7.556,-7.5628,-7.5851,-7.5951,-7.5878,-7.6309,-7.617,-7.6194,-7.6203,-7.6328,-7.6375,-7.6417,-7.5863,-7.586,-7.5858,0,0,-7.4834,-7.4956,-7.4984,-7.5184,-7.5217,-7.521,-7.5276,-7.5242,-7.5305,-7.533,-7.5355,-7.5419,-7.5533,-7.5608,-7.5714,-7.5962,-7.5972,-7.6078,-7.6114,-7.6143,-7.6168,-7.6301,-7.6348,-7.5848,-7.5848,-7.5848,0,0,-7.4768,-7.4807,-7.4756,-7.4986,-7.5048,-7.5087,-7.521,-7.5149,-7.5241,-7.522,-7.5171,-7.5186,-7.5394,-7.5419,-7.5291,-7.566,-7.5514,-7.5545,-7.5635,-7.568,-7.5715,-7.5703,-7.5132,0,0,0,0,0,-7.4595,-7.4802,-7.4756,-7.4791,-7.4959,-7.5114,-7.5135,-7.5098,-7.4995,-7.5094,-7.5105,-7.5023,-7.534,-7.5226,-7.5262,-7.5404,-7.5723,-7.5745,-7.5766,-7.5941,-7.5988,-7.6028,0,0,0,0,0,0,-7.4608,-7.4652,-7.475,-7.4799,-7.4836,-7.5106,-7.4923,-7.4919,-7.4983,-7.4965,-7.5024,-7.5025,-7.4997,-7.5204,-7.5238,-7.5373,-7.512,-7.5732,-7.575,-7.5767,-7.5957,-7.5996,-7.6029,0,0,0,0,0,-7.4619,-7.4654,-7.4932,-7.4796,-7.4828,-7.4829,-7.4915,-7.491,-7.4959,-7.4976,-7.4974,-7.4925,-7.5002,-7.5028,-7.5224,-7.5359,-7.5097,-7.511,-7.5744,-7.5759,-7.5772,-7.5976,0,0,0,0,0,0,-7.4627,-7.4651,-7.4937,-7.4946,-7.4713,-7.4813,-7.4827,-7.4903,-7.4965,-7.4966,-7.4874,-7.4859,-7.5008,-7.5027,-7.5047,-7.5356,-7.5078,-7.5091,-7.5099,-7.5755,-7.5767,-7.5777,0,0,0,0,0,0,-7.4631,-7.4659,-7.4942,-7.4839,-7.4836,-7.4799,-7.4811,-7.4972,-7.4967,-7.4859,-7.4848,-7.4866,-7.4978,-7.5028,-7.5043,-7.5296,-7.5063,-7.5075,-7.5084,-7.5089,-7.5765,-7.5774,0,0,0,0,0,0,-7.4642,-7.4666,-7.4837,-7.4834,-7.4831,-7.4923,-7.494,-7.5114,-7.4879,-7.4858,-7.4857,-7.4847,-7.4981,-7.4996,-7.5041,-7.5288,-7.5294,-7.5063,-7.5072,-7.5078,-7.5082,0,0,0,0,0,0,0,-7.4651,-7.4503,-7.4887,-7.483,-7.4826,-7.5025,-7.5027,-7.5029,-7.4877,-7.4868,-7.4859,-7.4851,-7.4993,-7.5006,-7.502,-7.5281,0,0,-7.5062,-7.5068,0,0,0,0,0,0,0,0,-7.4493,-7.4501,-7.4887,-7.4889,-7.4891,-7.5025,-7.5027,-7.5029,-7.4875,-7.4868,-7.4861,-7.4854,-7.4996,-7.5007,-7.5018,0,0,0,0,0,0,0,0,0,0,0,0,0,0,0,-7.4887,-7.4889,0,-7.5025,-7.5027,-7.5028,-7.4874,-7.4868,-7.4862,-7.4857,-7.4999,-7.5008,-7.5017,0,0,0,0,0,0,0,0,0,0,0,0,0,0,0,0,0,0,0,0,0,0,0,0,0,0,0,0,0,0,0,0,0,0,0,0,0,0,0,0,0,0,0,0,0,0,0,0,0,0,0,0,0,0,0,0,0,0,0,0,0,0,0,0,0,0,0,0,0]}],[{"header":{"parameterUnit":"kt","parameterCategory":2,"dx":1,"dy":1,"la1":30.253999710083008,"la2":30.299108505249023,"lo1":-89.0895004272461,"lo2":-89.04439544677734,"nx":28,"ny":28,"refTime":"2022-10-10T21:00:00:Z","depth":0,"parameterNumber":2,"parameterNumberName":"V-component_of_WINDS"},"data":[2.004,1.9997,2.0016,1.9974,1.9984,1.9958,1.9954,1.9951,1.9953,1.9922,1.9907,1.992,1.9926,1.9911,1.9893,1.9899,1.9889,1.9861,1.9871,1.9983,1.9999,2.0014,2.0026,1.986,1.9859,1.9753,1.9752,1.9751,2.0122,2.0133,2.0116,2.0113,2.0099,2.0138,2.0137,2.0122,2.0097,2.0098,2.0084,2.0057,2.0037,2.0053,2.0036,2.0013,2.0028,2.0007,2.0008,2.0007,2.0128,2.014,1.9995,1.9995,1.9995,1.9995,1.9995,1.9995,2.0278,2.0251,2.026,2.0243,2.0246,2.0243,2.0219,2.0236,2.0218,2.0205,2.0229,2.0199,2.0201,2.0188,2.0187,2.0163,2.0189,2.0169,2.0164,2.0158,2.0149,2.0299,2.016,2.0161,2.0161,2.0162,2.0162,0,2.0396,2.0414,2.04,2.0391,2.0378,2.0372,2.0369,2.0355,2.0395,2.0378,2.0355,2.0344,2.0321,2.0299,2.0286,2.0288,2.0322,2.0328,2.0314,2.0301,2.0292,2.0295,2.0489,2.033,2.0332,2.0333,2.0334,2.0334,2.0553,2.0519,2.0537,2.0524,2.0528,2.0505,2.0495,2.0534,2.0521,2.0521,2.0493,2.0473,2.0458,2.0414,2.0429,2.0411,2.0426,2.0364,2.0423,2.0414,2.0423,2.0424,2.042,2.035,2.0348,2.0347,2.0345,0,2.0638,2.0669,2.0623,2.0643,2.0647,2.0609,2.0625,2.0598,2.0616,2.0581,2.0575,2.0601,2.0576,2.0602,2.0576,2.059,2.0524,2.0541,2.0524,2.0528,2.0474,2.0478,2.0295,2.0273,2.0449,2.0447,2.0445,0,2.0783,2.0736,2.0784,2.0755,2.0705,2.0745,2.0694,2.0704,2.0708,2.068,2.0725,2.0698,2.0735,2.0711,2.0731,2.0682,2.0677,2.0684,2.0689,2.0678,2.0677,2.0668,2.0675,2.0704,2.0705,2.0706,2.0707,0,2.0912,2.0883,2.0838,2.0835,2.0851,2.0827,2.0832,2.0836,2.0824,2.0814,2.0807,2.079,2.078,2.0766,2.0792,2.0831,2.0732,2.0791,2.0739,2.0738,2.0712,2.0713,2.0549,2.0708,2.0708,2.0709,2.0709,0,2.1032,2.1024,2.0953,2.0967,2.0957,2.0925,2.0914,2.0893,2.0893,2.0905,2.0896,2.0928,2.0888,2.0944,2.0889,2.0933,2.092,2.0923,2.092,2.0915,2.0977,2.0878,2.0721,2.0705,2.0915,2.0916,2.0918,0,2.1172,2.1108,2.1142,2.1072,2.1046,2.11,2.1065,2.1065,2.1077,2.1055,2.1068,2.1041,2.1089,2.1083,2.1053,2.1064,2.1007,2.1073,2.1035,2.1033,2.1032,2.0889,2.0858,2.0754,2.094,2.0938,2.0936,0,2.1283,2.1304,2.1289,2.1288,2.1295,2.1272,2.1233,2.1216,2.12,2.1193,2.1159,2.1122,2.1157,2.1146,2.1169,2.1136,2.1047,2.1176,2.1176,2.115,2.0954,2.0925,2.0908,2.1069,2.1066,2.1064,2.0954,0,2.1456,2.1427,2.1389,2.1384,2.1372,2.1329,2.1359,2.1341,2.1366,2.138,2.133,2.1333,2.1312,2.1299,2.1321,2.1238,2.1255,2.1291,2.1344,2.1251,2.1215,2.1201,2.1396,2.1398,2.1399,2.1401,0,0,2.158,2.1541,2.1578,2.1542,2.1533,2.1589,2.154,2.1537,2.1529,2.152,2.1552,2.1498,2.1498,2.1433,2.1407,2.1398,2.1385,2.1415,2.1296,2.1284,2.1273,2.1234,2.1219,2.1403,2.1404,2.1404,2.1405,0,2.1649,2.1655,2.1608,2.1608,2.1609,2.1626,2.1615,2.1624,2.163,2.1582,2.1625,2.1597,2.1552,2.1546,2.1537,2.1426,2.1456,2.1417,2.1348,2.131,2.1296,2.1284,2.1243,2.1228,2.1408,2.1408,2.1408,0,2.1763,2.1773,2.1753,2.1738,2.1738,2.1708,2.1774,2.174,2.1717,2.1774,2.1724,2.1729,2.1722,2.1658,2.163,2.1657,2.152,2.1568,2.1559,2.1555,2.1519,2.1503,2.1488,2.1681,2.1682,2.1683,0,0,2.1818,2.1792,2.1812,2.1754,2.1752,2.1777,2.1763,2.1786,2.1783,2.178,2.1786,2.1778,2.1753,2.1734,2.1711,2.1637,2.1637,2.16,2.1587,2.1577,2.1567,2.1528,2.1512,2.1686,2.1686,2.1686,0,0,2.1843,2.1865,2.1892,2.1829,2.1826,2.1838,2.1801,2.1832,2.1815,2.1822,2.1856,2.1855,2.1796,2.1797,2.1838,2.173,2.1783,2.1774,2.1731,2.1715,2.1702,2.1702,2.1902,0,0,0,0,0,2.1928,2.1864,2.1888,2.1881,2.1859,2.1826,2.1823,2.1852,2.189,2.186,2.187,2.1904,2.1826,2.1863,2.1855,2.1808,2.1728,2.172,2.1713,2.1641,2.1624,2.1609,0,0,0,0,0,0,2.1926,2.1919,2.1889,2.1899,2.1894,2.1829,2.19,2.1906,2.1894,2.1902,2.1901,2.1904,2.1925,2.187,2.1861,2.1816,2.1904,2.1725,2.1719,2.1713,2.1635,2.1621,2.1609,0,0,0,0,0,2.1925,2.1919,2.1876,2.19,2.1896,2.1919,2.1902,2.1908,2.1899,2.1913,2.1918,2.1922,2.1923,2.1918,2.1865,2.1819,2.191,2.1907,2.1721,2.1716,2.1712,2.1628,0,0,0,0,0,0,2.1924,2.1922,2.1875,2.1875,2.1927,2.1923,2.1924,2.191,2.1912,2.1915,2.1936,2.1942,2.1921,2.1918,2.1914,2.1819,2.1915,2.1912,2.191,2.1717,2.1713,2.171,0,0,0,0,0,0,2.1926,2.1922,2.1875,2.1908,2.1911,2.1927,2.1927,2.1885,2.1911,2.1934,2.1939,2.1938,2.1926,2.1917,2.1914,2.1846,2.1919,2.1916,2.1913,2.1912,2.1714,2.1711,0,0,0,0,0,0,2.1925,2.1921,2.1908,2.1911,2.1914,2.1912,2.189,2.1863,2.1943,2.1933,2.195,2.1954,2.1924,2.1922,2.1914,2.1847,2.1846,2.1918,2.1916,2.1915,2.1914,0,0,0,0,0,0,0,2.1924,2.1941,2.1878,2.1913,2.1916,2.1872,2.1872,2.1872,2.1944,2.1947,2.195,2.1952,2.1936,2.1933,2.1929,2.1848,0,0,2.1919,2.1917,0,0,0,0,0,0,0,0,2.1943,2.1942,2.1878,2.1878,2.1878,2.1872,2.1872,2.1872,2.1944,2.1947,2.1949,2.1951,2.1935,2.1932,2.193,0,0,0,0,0,0,0,0,0,0,0,0,0,0,0,2.1878,2.1878,0,2.1872,2.1872,2.1872,2.1944,2.1946,2.1948,2.195,2.1934,2.1932,2.193,0,0,0,0,0,0,0,0,0,0,0,0,0,0,0,0,0,0,0,0,0,0,0,0,0,0,0,0,0,0,0,0,0,0,0,0,0,0,0,0,0,0,0,0,0,0,0,0,0,0,0,0,0,0,0,0,0,0,0,0,0,0,0,0,0,0,0,0,0]}]]]